Overview Statistics Trail Chart Weather Telemetry Raw packets
 

This is the latest recevied weather packets stored in our database for station/object AA7VG. If no packets are shown the sender has not sent any weather packets the latest 10 day(s).

<< 100 101 102 103 104 105 106 >>
Time Temp. Humidity Pressure Rain* Wind** Luminosity Snow
1787860745 28.33° C 30% 1017.2 hPa 0 mm - - -
1787860441 28.89° C 29% 1017.2 hPa 0 mm - - -
1787860141 29.44° C 28% 1017.2 hPa 0 mm - - -
1787859836 29.44° C 29% 1017.1 hPa 0 mm - - -
1787859531 28.89° C 29% 1017.1 hPa 0 mm - - -
1787859231 28.89° C 30% 1017.1 hPa 0 mm - - -
1787858928 28.89° C 30% 1017.2 hPa 0 mm - - -
1787858623 28.33° C 30% 1017.4 hPa 0 mm - - -
1787858318 28.33° C 29% 1017.5 hPa 0 mm - - -
1787858013 28.89° C 29% 1017.4 hPa 0 mm - - -
1787857709 29.44° C 28% 1017.7 hPa 0 mm - - -
1787857405 28.33° C 30% 1017.7 hPa 0 mm - - -
1787857103 27.78° C 30% 1017.6 hPa 0 mm - - -
1787856799 27.78° C 32% 1017.6 hPa 0 mm - - -
1787856498 27.78° C 32% 1017.8 hPa 0 mm - - -
1787856193 27.78° C 33% 1017.8 hPa 0 mm - - -
1787855888 27.22° C 34% 1018 hPa 0 mm - - -
1787855583 27.22° C 35% 1018 hPa 0 mm - - -
1787855278 27.22° C 34% 1018.3 hPa 0 mm - - -
1787854974 27.22° C 33% 1017.9 hPa 0 mm - - -
1787854669 26.67° C 31% 1018.3 hPa 0 mm - - -
1787854369 26.67° C 32% 1018.4 hPa 0 mm - - -
1787854064 26.67° C 33% 1018.3 hPa 0 mm - - -
1787853763 27.22° C 32% 1018.2 hPa 0 mm - - -
1787853463 26.67° C 32% 1018.6 hPa 0 mm - - -

* Rain latest hour (hover to see other rain measurements)
** Current wind speed in m/s (hover to see current wind gust speed)